User: anonymous   Login
Location: Brno
(49.2000°N, 16.6330°E)
Time: 04:22:53
(UTC+01:00)
Language:

CARTOSAT-1 - Orbit

View from above orbital plane
View from above orbital plane
View from above satellite
View from above satellite

Ground track
Ground track

The orbit data is extracted from the following two-line orbital elements,

1 28649U 05017A   16039.73145476  .00000333  00000-0  47040-4 0  9996
2 28649  97.9114 114.3572 0001747 177.0688 182.9703 14.83415658582674
Epoch (UTC): 08 February 2016 17:33:17
Eccentricity: 0.0001747
inclination: 97.9114°
perigee height: 617 km
apogee height: 620 km
right ascension of ascending node: 114.3572°
argument of perigee: 177.0688°
revolutions per day: 14.83415658
mean anomaly at epoch: 182.9703°
orbit number at epoch: 58267

The dashed part of the orbit path shows where the satellite is in the earth's shadow,  

DLR